Regional Weather Roundup
Issued by NWS

Home | Current Version | Previous Version | Text Only | Print | Product List | Glossary Off
Versions: 1 2 3 4 5 6 7 8 9 10 11 12 13 14 15 16 17 18 19 20 21 22 23 24 25 26 27 28 29 30 31 32 33 34 35 36 37 38 39 40 41 42 43 44 45 46 47 48 49 50

218
ASUS45 KCYS 291310
RWRWY

WYOMING REGIONAL WEATHER ROUNDUP
NATIONAL WEATHER SERVICE CHEYENNE WY
700 AM MDT FRI JUL 29 2016

NOTE:  "FAIR" INDICATES FEW OR NO CLOUDS BELOW 12,000 FEET
WITH NO SIGNIFICANT WEATHER AND/OR OBSTRUCTIONS TO VISIBILITY.

WYZ001-291400-
YELLOWSTONE NATIONAL PARK

CITY           SKY/WX    TMP DP  RH WIND       PRES   REMARKS
LK YELLOWSTONE   N/A     41  38  89 CALM      30.35S
W YELLOWSTONE  NOT AVBL

$$
WYZ002>013-054>058-071-098>099-291400-
NORTHERN WYOMING

CITY           SKY/WX    TMP DP  RH WIND       PRES   REMARKS
JACKSON        CLEAR     46  43  87 CALM      30.27R
CODY           FAIR      59  48  67 CALM      30.18S
GREYBULL       FAIR      61  48  62 CALM      30.10S
WORLAND        FAIR      61  48  62 CALM      30.12S
SHERIDAN       FAIR      55  50  83 S5        30.13R
BUFFALO        FAIR      63  44  50 NW7       30.17R
GILLETTE       FAIR      59  57  93 S10       30.14S
HULETT         FAIR      59  54  82 CALM      30.16F
NEWCASTLE      FAIR      59  52  77 E6        30.17S

$$
WYZ014>020-022>026-101>103-291400-
CENTRAL WYOMING

CITY           SKY/WX    TMP DP  RH WIND       PRES   REMARKS
BIG PINEY      FAIR      49  32  52 E6        30.32R
PINEDALE       FAIR      43  36  75 W3        30.33S
DUBOIS         FAIR      48  41  76 W10       30.32S HAZE
LANDER         FAIR      60  45  57 CALM      30.21R
RIVERTON       FAIR      59  49  69 CALM      30.21S
CASPER         FAIR      57  50  77 NW3       30.19S
DOUGLAS          N/A    N/A N/A N/A MISG      30.18F

$$
WYZ021-027>030-104>119-291400-
SOUTHERN WYOMING

CITY           SKY/WX    TMP DP  RH WIND       PRES   REMARKS
EVANSTON       FAIR      59  31  34 E9        30.29R
KEMMERER         N/A     54  37  54 N5        30.31S
FORT BRIDGER   FAIR      55  33  43 W7        30.33R
ROCK SPRINGS   FAIR      58  46  64 E5        30.29R
DIXON          FAIR      49  42  77 E5        30.29S
RAWLINS        FAIR      55  50  83 CALM      30.28S
SARATOGA       FAIR      48  46  93 CALM      30.31S
LARAMIE        FOG       51  50  96 SW6       30.30R VSB 1/2
CHEYENNE       FAIR      59  57  93 SW8       30.24S FOG
TORRINGTON     FAIR      58  57  97 SE5       30.15R
PINE BLUFFS    FAIR      55  54  94 CALM      30.21S

$$




USA.gov is the U.S. government's official web portal to all federal, state and local government web resources and services.